GEFSSE_con_probscp_084.txt.gz
Probability
4 9 18 21 17 12 8 4 1 0 0 0 0 0 0 0 0 0 0 0 0 0 0 0 0 0 0 0 0 0 0 0 0 0 0 0 0 0 0 0 0 0 0
7 11 18 22 19 14 10 5 2 0 0 0 0 0 0 0 0 0 0 0 0 0 0 0 0 0 0 0 0 0 0 0 0 0 0 0 0 0 0 0 0 0 0
14 15 19 21 20 17 14 8 3 1 0 0 0 0 0 0 0 0 0 0 0 0 0 0 0 0 0 0 0 0 0 0 0 0 0 0 0 0 0 0 0 0 0
17 17 18 20 21 20 19 15 9 4 2 1 1 0 0 0 0 0 0 0 0 0 0 0 0 0 0 0 0 0 0 0 0 0 0 0 0 0 0 0 0 0 0
15 15 18 22 24 24 24 21 15 9 6 4 2 1 0 0 0 0 0 0 0 0 0 0 0 0 0 0 0 0 0 0 0 0 0 0 0 0 0 0 0 0 0
15 16 21 26 28 28 27 24 19 14 10 7 4 2 1 1 0 0 0 0 0 0 0 0 0 0 0 0 0 0 0 0 0 0 0 0 0 0 0 0 0 0 0
16 16 22 30 32 30 27 24 20 15 11 7 4 3 3 2 1 0 0 0 0 0 0 0 0 0 0 0 0 0 0 0 0 0 0 0 0 0 0 0 0 0 0
14 14 19 26 30 28 24 20 17 14 11 7 4 3 3 3 2 2 1 1 1 1 0 0 0 0 0 0 0 0 0 0 0 0 0 0 0 0 0 0 0 0 0
12 13 14 18 22 22 18 13 12 13 13 10 5 3 3 4 4 5 5 5 4 3 1 0 1 1 1 1 1 0 0 0 0 0 0 0 0 0 0 0 0 0 0
13 12 11 13 15 16 13 11 10 12 13 10 5 4 4 4 4 6 8 7 5 3 2 2 4 5 5 4 2 1 0 0 0 0 0 0 0 0 1 1 0 0 0
18 13 9 10 12 12 12 11 10 10 11 10 8 8 10 8 6 6 9 9 7 6 5 5 7 8 8 7 4 2 1 1 1 0 0 0 1 2 4 6 4 3 2
22 15 8 8 9 9 11 12 11 10 11 14 15 17 17 15 13 12 12 12 12 13 12 10 10 12 14 12 7 4 3 3 2 1 0 0 2 7 13 15 13 9 7
27 20 13 10 9 9 13 15 14 11 14 19 22 23 23 21 19 20 19 17 19 24 27 24 22 26 28 22 13 7 5 4 3 1 0 1 6 14 22 26 24 18 14
37 32 25 20 19 21 25 27 22 19 22 27 28 30 30 27 24 24 23 23 27 37 42 39 38 39 37 29 18 9 5 5 5 2 2 5 12 22 31 35 32 25 20
46 42 38 36 38 42 46 47 40 35 35 36 35 36 37 34 30 28 25 25 31 40 43 40 38 36 33 29 21 12 7 6 6 4 4 9 18 28 36 39 36 29 23
49 49 49 51 54 59 63 61 55 49 44 41 38 39 38 35 31 28 24 22 24 30 31 28 26 25 24 23 21 16 12 10 8 6 6 11 21 29 33 35 35 30 24
49 52 57 58 59 61 62 61 57 51 45 39 35 34 31 26 22 21 19 16 16 18 19 16 15 16 16 15 15 16 15 12 10 9 9 11 17 23 25 27 30 29 24
44 49 54 53 51 48 48 48 46 41 34 29 26 24 21 17 13 12 12 11 10 10 10 9 8 8 9 9 9 10 11 10 10 11 12 12 13 16 18 18 21 23 22
29 35 39 38 36 33 31 31 30 27 22 18 17 15 13 12 10 8 7 7 7 6 6 5 5 5 5 5 5 5 5 7 8 10 11 12 11 14 14 12 13 16 17
15 19 22 23 22 20 18 18 17 16 15 13 12 11 10 9 8 7 5 4 4 4 3 2 3 4 4 4 4 3 3 5 6 6 7 9 9 11 12 12 11 13 14
10 11 13 13 13 11 10 10 9 9 9 9 9 8 8 7 6 6 5 3 3 2 1 0 1 2 2 3 3 3 3 3 3 3 3 4 5 5 8 10 12 14 15
8 9 10 10 9 7 7 6 6 5 5 5 5 5 4 3 2 3 3 3 1 1 0 0 0 1 1 1 2 2 1 1 1 1 1 1 1 2 4 9 13 15 15
5 7 8 8 6 5 5 5 4 4 4 4 3 2 1 1 1 1 2 2 1 0 1 1 0 0 0 0 1 1 0 0 0 0 0 0 0 1 3 7 12 13 12
2 4 5 4 3 2 2 2 2 2 3 3 2 1 0 0 1 1 2 2 1 1 2 1 0 0 0 0 0 0 0 0 0 0 0 0 0 1 2 4 7 10 10
2 3 3 3 2 1 1 0 0 0 1 1 1 0 0 0 1 1 1 1 1 1 1 1 0 0 0 0 0 0 0 0 0 0 0 0 0 0 1 1 3 6 7
2 2 2 3 3 3 2 1 0 0 0 0 0 0 0 0 1 0 0 0 0 0 1 0 0 0 0 0 0 0 0 0 0 0 0 0 0 0 0 0 1 3 4

GEFSSE_con_probscp_090.txt.gz
Probability
3 5 8 9 9 9 9 9 11 13 12 9 6 4 3 2 1 0 0 0 0 0 0 0 0 0 0 0 0 0 0 0 0 0 0 0 0 0 0 0 0 0 0
5 6 9 10 10 9 7 7 8 9 8 7 5 3 2 1 0 0 0 0 0 0 0 0 0 0 0 0 0 0 0 0 0 0 0 0 0 0 0 0 0 0 0
10 10 12 12 11 8 6 5 4 5 4 4 3 3 1 0 0 0 0 0 0 0 0 0 0 0 0 0 0 0 0 0 0 0 0 0 0 0 0 0 0 0 0
13 13 16 16 13 8 6 5 4 4 3 3 3 3 2 1 0 0 0 0 0 0 0 0 0 0 0 0 0 0 0 0 0 0 0 0 0 0 0 0 0 0 0
16 17 20 22 18 12 8 8 8 7 5 3 3 3 2 1 0 0 0 0 0 0 0 0 0 0 0 0 0 0 0 0 0 0 0 0 0 0 0 0 0 0 0
22 21 23 26 25 18 13 12 13 11 8 6 4 3 1 1 0 0 0 0 0 0 0 0 0 0 0 0 0 0 0 0 0 0 0 0 0 0 0 0 0 0 0
25 24 25 29 29 24 19 16 15 13 10 8 6 4 2 0 0 0 0 0 0 0 0 0 0 0 0 0 0 0 0 0 0 0 0 0 0 0 0 0 0 0 0
28 25 26 29 29 28 25 22 17 12 9 8 6 4 3 1 0 0 0 0 0 0 0 0 0 0 0 0 0 0 0 0 0 0 0 0 0 0 0 0 0 0 0
28 26 26 28 28 28 27 25 20 14 9 7 5 3 2 2 1 0 1 1 1 0 0 0 0 0 1 1 0 0 0 0 0 0 0 0 0 0 0 0 0 0 0
26 23 23 26 28 27 25 24 21 16 13 10 6 3 2 2 1 1 2 3 3 2 1 1 1 1 2 2 1 1 0 0 0 0 0 0 0 0 0 0 0 0 0
21 19 20 25 28 28 24 21 19 17 15 13 9 6 5 5 4 4 4 5 5 5 3 2 2 2 3 4 3 2 2 1 0 0 0 0 0 0 0 0 0 0 0
17 17 19 24 28 28 24 20 19 18 17 15 13 11 11 11 10 9 7 5 6 7 8 7 6 6 7 7 5 4 4 3 1 0 0 0 0 0 0 0 1 1 0
14 15 19 25 28 25 21 19 18 19 19 18 16 14 16 18 18 15 11 9 9 11 14 14 12 13 12 10 8 7 7 6 4 2 0 0 0 0 0 1 2 2 1
15 16 19 23 25 21 19 19 17 16 18 19 18 16 16 19 21 19 15 12 12 14 17 18 19 20 18 14 11 10 8 8 8 6 2 1 1 1 1 1 3 3 3
19 19 18 19 21 20 19 18 14 13 15 17 16 14 13 15 18 18 15 11 10 11 14 16 20 24 21 17 15 12 9 7 8 8 5 2 2 3 3 3 4 4 3
20 19 17 16 17 18 17 14 11 10 11 11 10 8 9 11 14 15 13 8 5 6 9 10 15 18 17 16 16 14 11 8 8 9 7 4 5 7 7 6 6 5 5
14 14 14 13 13 12 10 8 8 7 6 5 5 5 6 8 10 12 11 7 3 3 4 5 6 8 9 11 12 11 11 10 8 9 9 8 7 9 11 11 8 8 9
6 7 9 9 7 5 4 4 5 5 4 4 4 4 4 5 6 7 8 7 5 3 3 3 2 3 4 5 6 5 6 7 7 8 9 8 7 8 12 13 10 11 13
4 4 4 4 3 2 1 1 2 3 4 3 3 3 2 3 3 4 5 5 4 3 3 3 2 2 2 2 2 2 2 4 5 6 5 5 5 6 9 11 13 14 14
3 3 2 2 2 1 0 0 1 1 2 2 2 1 1 1 1 1 2 2 1 1 1 2 2 1 1 0 0 1 1 3 4 5 4 3 3 4 6 9 15 17 17
1 2 2 2 2 1 0 0 1 0 0 1 1 0 0 0 0 0 0 0 0 0 0 1 1 0 0 0 0 0 1 1 2 3 4 3 2 3 5 9 14 19 20
0 1 1 2 2 1 0 0 0 0 0 0 0 0 0 0 0 0 0 0 0 0 0 0 0 0 0 0 0 0 0 0 0 2 3 3 3 4 6 9 14 18 19
0 0 0 1 1 1 0 0 0 0 0 0 0 0 0 0 0 0 0 0 0 0 0 0 0 0 0 0 0 0 0 0 0 2 3 3 3 5 6 9 14 16 16
0 0 0 0 0 0 0 0 0 0 0 0 0 0 0 0 0 0 0 0 0 0 0 0 0 0 0 0 0 0 0 0 0 1 2 3 3 4 5 8 12 15 14
0 0 0 0 0 0 0 0 0 0 0 0 0 0 0 0 0 0 0 0 0 0 0 0 0 0 0 0 0 0 0 0 0 0 1 2 2 2 4 5 8 11 13
0 0 0 0 0 0 0 0 0 0 0 0 0 0 0 0 0 0 0 0 0 0 0 0 0 0 0 0 0 0 0 0 0 0 0 1 1 1 3 4 5 7 10

GEFSSE_con_probscp_096.txt.gz
Probability
4 4 3 1 0 0 0 0 0 0 0 1 0 0 0 0 0 0 0 0 0 0 0 0 0 0 0 0 0 0 0 0 0 0 0 0 0 0 0 0 0 0 0
4 5 4 1 0 0 0 0 0 0 1 1 1 0 0 0 0 0 0 0 0 0 0 0 0 0 0 0 0 0 0 0 0 0 0 0 0 0 0 0 0 0 0
4 5 4 1 0 0 0 0 0 1 2 3 2 0 0 0 0 0 0 0 0 0 0 0 0 0 0 0 0 0 0 0 0 0 0 0 0 0 0 0 0 0 0
5 6 5 2 0 0 0 0 1 2 4 4 2 0 0 0 0 0 0 0 0 0 0 0 0 0 0 0 0 0 0 0 0 0 0 0 0 0 0 0 0 0 0
6 7 7 4 1 0 0 1 3 3 4 3 2 0 0 0 0 0 0 0 0 0 0 0 0 0 0 0 0 0 0 0 0 0 0 0 0 0 0 0 0 0 0
7 8 9 8 4 2 2 2 4 4 3 2 1 0 0 0 0 0 0 0 0 0 0 0 0 0 0 0 0 0 0 0 0 0 0 0 0 0 0 0 0 0 0
8 9 12 12 9 6 5 3 3 3 2 1 0 0 0 0 0 0 0 0 0 0 0 0 0 0 0 0 0 0 0 0 0 0 0 0 0 0 0 0 0 0 0
9 10 12 12 10 8 6 3 2 1 1 0 0 0 0 0 0 0 0 0 0 0 0 0 0 0 0 0 0 0 0 0 0 0 0 0 0 0 0 0 0 0 0
10 10 10 9 7 6 4 3 1 1 1 0 0 0 0 0 0 0 0 0 0 0 0 0 0 0 0 0 0 0 0 0 0 0 0 0 0 0 0 0 0 0 0
11 11 9 7 5 3 3 4 3 1 1 1 1 1 1 0 0 0 0 0 0 0 0 0 0 0 1 1 0 0 0 0 0 0 0 0 0 0 0 0 0 0 0
17 14 10 7 6 3 4 6 5 3 3 3 3 3 2 1 1 1 2 2 1 0 0 1 1 1 1 1 1 1 1 0 0 0 1 2 1 0 0 0 0 0 0
24 18 12 10 8 5 6 10 11 11 11 9 8 9 9 8 7 7 8 8 5 3 3 4 4 3 3 4 4 3 2 1 1 1 4 8 5 1 0 0 0 0 0
27 20 14 14 13 12 15 19 21 22 20 17 16 20 24 25 23 23 25 23 18 16 15 15 15 12 9 9 7 4 2 2 2 2 9 15 11 2 0 1 1 1 0
28 22 19 19 21 24 27 27 26 26 24 22 25 30 37 39 36 37 40 36 31 29 26 25 26 23 18 15 11 7 5 5 4 6 15 22 15 5 1 1 2 2 1
29 26 24 25 27 31 32 30 27 26 25 25 28 33 37 39 38 39 41 38 34 31 27 25 26 27 24 20 16 12 11 10 9 10 17 23 17 9 5 3 2 2 2
32 28 26 26 27 26 26 25 24 23 23 23 24 26 29 30 31 33 35 34 31 28 25 22 21 23 25 23 20 18 16 17 18 18 21 23 17 12 11 9 7 6 5
34 30 25 21 18 17 17 17 17 17 17 17 16 16 17 18 22 27 30 31 29 27 26 24 21 21 23 23 21 20 22 25 26 26 29 30 24 17 15 16 17 15 12
33 28 20 14 11 12 12 12 12 12 12 11 9 8 8 8 11 19 25 26 25 23 23 23 22 21 21 21 19 18 24 28 26 24 27 31 30 25 22 24 28 26 21
28 23 16 12 9 9 9 9 9 10 9 7 5 3 3 2 4 10 15 17 17 17 17 18 19 19 20 19 16 14 17 20 17 13 14 19 25 28 25 27 32 31 27
20 17 14 11 9 7 6 4 4 4 4 4 4 3 2 1 1 4 7 8 9 10 11 12 15 18 18 16 12 9 10 11 10 8 6 9 15 19 19 24 34 37 35
12 11 10 8 6 5 4 3 3 3 3 3 4 4 4 2 1 3 4 5 5 6 7 10 13 15 15 13 10 8 7 7 7 7 7 9 11 13 13 19 32 43 45
5 5 5 4 3 3 4 4 4 4 3 2 3 5 5 2 1 1 3 4 5 5 6 8 8 10 10 9 8 6 5 4 5 6 8 9 10 13 15 17 27 39 44
1 2 2 2 2 2 3 3 3 3 2 1 2 3 3 1 0 0 1 2 4 4 4 4 3 4 5 6 6 4 3 2 3 4 5 6 9 13 15 16 20 28 33
0 0 1 2 3 3 3 2 1 1 0 0 1 1 1 0 0 0 0 0 1 1 2 1 1 1 2 3 4 3 2 1 1 1 2 2 4 7 11 14 17 22 26
0 0 2 4 6 6 4 2 1 0 0 0 0 0 0 0 0 0 0 0 0 0 0 0 0 0 1 1 1 1 1 1 0 0 0 1 1 2 7 12 17 22 26
0 1 3 7 11 9 5 3 1 0 0 0 0 0 0 0 0 0 0 0 0 0 0 0 0 0 1 0 0 0 0 1 0 0 0 1 1 2 5 11 16 22 28

GEFSSE_con_probscp_102.txt.gz
Probability
25 20 14 6 1 0 0 0 0 0 0 0 0 0 0 0 0 0 0 0 0 0 0 0 0 0 0 0 0 0 0 0 0 0 0 0 0 0 0 0 0 0 0
27 21 15 9 2 0 0 0 0 0 0 0 0 0 0 0 0 0 0 0 0 0 0 0 0 0 0 0 0 0 0 0 0 0 0 0 0 0 0 0 0 0 0
22 19 16 12 5 2 1 0 0 0 0 0 0 0 0 0 0 0 0 0 0 0 0 0 0 0 0 0 0 0 0 0 0 0 0 0 0 0 0 0 0 0 0
16 15 16 15 9 5 2 1 1 1 0 0 0 0 0 0 0 0 0 0 0 0 0 0 0 0 0 0 0 0 0 0 0 0 0 0 0 0 0 0 0 0 0
14 15 17 16 12 7 5 4 4 2 1 0 0 0 0 0 0 0 0 0 0 0 0 0 0 0 0 0 0 0 0 0 0 0 0 0 0 0 0 0 0 0 0
21 21 20 18 13 9 7 7 6 4 1 0 0 0 0 0 0 0 0 0 0 0 0 0 0 0 0 0 0 0 0 0 0 0 0 0 0 0 0 0 0 0 0
31 28 25 22 15 10 10 9 7 4 2 1 0 0 0 0 0 0 0 0 0 0 0 0 0 0 0 0 0 0 0 0 0 0 0 0 0 0 0 0 0 0 0
39 34 29 24 18 12 12 11 7 5 3 1 0 0 0 0 0 0 0 0 0 0 0 0 0 0 0 0 0 0 0 0 0 0 1 1 1 0 0 0 0 0 0
46 38 29 22 16 11 10 9 7 5 4 3 2 0 0 0 0 0 0 0 0 0 0 0 0 0 0 0 0 0 0 0 1 0 1 3 2 0 0 0 0 0 0
52 43 32 22 14 8 7 8 8 6 5 6 5 2 1 0 0 0 0 1 1 0 0 0 0 0 0 0 0 0 0 0 0 1 4 9 8 3 1 0 0 0 0
58 49 37 27 16 7 7 10 10 7 8 9 9 6 3 2 2 2 5 8 6 3 1 1 1 1 0 0 0 0 0 0 0 2 12 23 19 9 3 1 1 0 0
60 52 42 34 25 17 16 18 14 14 18 17 15 15 11 9 10 13 19 22 16 9 5 4 6 5 3 3 4 3 2 0 0 4 22 38 33 18 10 6 4 1 0
59 55 49 46 42 36 33 30 25 28 32 28 27 28 25 23 26 32 38 36 27 19 15 15 16 14 9 7 10 10 5 2 1 8 29 47 44 31 21 16 12 7 4
60 58 57 57 56 53 48 42 37 40 42 40 40 41 37 35 39 45 46 42 35 30 26 26 26 20 14 13 15 16 13 8 6 13 32 48 48 39 32 28 24 17 11
59 59 59 58 57 56 53 47 43 43 43 44 45 45 41 39 41 43 41 37 32 30 29 28 26 21 16 15 16 19 20 16 12 17 33 48 49 43 41 38 34 26 20
53 55 54 53 53 52 50 45 39 37 37 38 38 38 36 34 35 36 34 29 25 25 26 24 21 20 17 15 15 18 20 20 19 22 33 45 48 45 46 46 42 36 32
53 53 50 47 48 48 44 37 31 29 28 28 27 26 24 23 26 28 27 25 23 23 25 23 20 21 22 20 19 17 17 20 23 26 33 41 45 45 46 48 50 47 45
55 54 46 40 40 39 34 27 22 20 19 18 17 17 15 14 15 17 18 20 21 21 22 21 21 24 26 25 22 16 13 18 23 27 30 37 43 45 45 47 49 50 49
50 46 40 32 29 27 22 16 14 12 10 9 10 11 10 7 7 8 10 12 14 14 14 15 18 22 23 21 16 12 11 16 21 23 24 30 38 44 46 45 45 45 44
39 36 31 25 20 16 12 9 8 8 6 5 5 7 7 5 4 4 4 5 6 7 7 9 12 15 16 15 11 9 11 13 17 20 21 23 29 37 42 45 46 44 43
32 29 25 20 14 10 8 7 8 7 5 3 2 4 6 5 5 4 3 4 4 4 5 6 6 8 10 11 9 8 7 9 12 17 21 23 23 28 32 37 42 46 46
26 22 19 16 12 8 7 8 8 6 4 3 4 4 5 6 6 5 5 5 5 6 5 4 4 4 5 7 7 4 3 5 7 11 18 21 21 22 22 23 30 38 41
15 13 12 13 11 8 6 7 6 5 4 5 6 7 7 6 7 7 6 5 5 6 5 5 4 3 2 3 3 2 1 2 3 6 10 13 16 18 15 13 16 25 29
5 7 12 15 14 10 7 7 7 7 7 8 10 11 10 8 6 5 4 3 4 4 3 3 3 1 1 1 1 1 0 0 1 2 4 6 10 13 12 9 10 16 22
3 7 15 22 22 18 13 11 11 11 10 10 11 12 12 8 4 3 2 3 3 3 2 1 1 0 0 0 0 0 0 0 0 0 1 2 4 7 8 8 7 11 16
4 9 18 26 28 24 17 14 14 13 12 11 12 12 10 5 2 2 2 3 3 3 2 1 0 0 0 0 0 0 0 0 0 0 0 0 1 3 5 6 6 9 12